Regional Weather Roundup
Issued by NWS State College, PA

Home | Current Version | Previous Version | Graphics & Text | Print | Product List | Glossary Off
Versions: 1 2 3 4 5 6 7 8 9 10 11 12 13 14 15 16 17 18 19 20 21 22 23 24 25 26 27 28 29 30 31 32 33 34 35 36 37 38 39 40 41 42 43 44 45 46 47 48 49 50

000
ASUS41 KCTP 281310
RWRCTP

REGIONAL WEATHER ROUNDUP
NATIONAL WEATHER SERVICE STATE COLLEGE PA
900 AM EDT THU JUL 28 2016

Note: "fair" indicates few or no clouds below 12,000 feet with no
significant weather and/or obstructions to visibility.

* = STATION THAT DOES NOT REPORT PRECIPITATION /E.G. RAIN...SNOW...ETC/
    THUNDER OR FOG.

PAZ002>004-007>009-013>016-020>023-029>032-281400-
WESTERN PENNSYLVANIA

CITY           SKY/WX    TMP DP  RH WIND       PRES   REMARKS
ERIE           PTSUNNY   76  63  64 S3        29.94S
MEADVILLE      CLOUDY    70  61  73 E3        29.97S
FRANKLIN*      CLOUDY    70  63  78 E5        29.98F
NEW CASTLE     PTSUNNY   71  67  87 CALM      29.96R
BEAVER COUNTY  CLOUDY    73  64  73 CALM      29.95R
BUTLER*        PTSUNNY   73  66  78 SE5       29.98S
PITTSBURGH INT LGT RAIN  73  68  84 S3        29.95R
PITTSBURGH     PTSUNNY   74  69  85 S6        29.95R HAZE
INDIANA*       SUNNY     73  64  73 CALM      30.00S
LATROBE        CLOUDY    72  68  88 CALM      29.97S
WASHINGTON CO* CLOUDY    73  70  88 SW3       29.97R
$$

PAZ004>006-010>012-017>019-024>028-033>037-041-042-045-046-049>053-281400-
CENTRAL PENNSYLVANIA

CITY           SKY/WX    TMP DP  RH WIND       PRES   REMARKS
BRADFORD       CLOUDY    66  62  87 CALM      30.02S
DUBOIS         MOSUNNY   72  61  68 E3        29.99S
CLEARFIELD     PTSUNNY   67  60  78 CALM      30.00R
JOHNSTOWN      LGT RAIN  70  64  81 NW6       30.03R
ALTOONA        CLOUDY    73  60  63 CALM      29.99S
STATE COLLEGE  PTSUNNY   70  63  78 CALM      29.98S
WILLIAMSPORT   MOSUNNY   72  61  68 W6        29.94S
SELINSGROVE    MOSUNNY   74  69  85 CALM      29.95S
FT INDIANTOWN  MOSUNNY   80  63  56 E5        29.93F
CAPITAL CITY   CLOUDY    80  69  69 CALM      29.93R
HARRISBURG     CLOUDY    79  70  74 CALM      29.92S
YORK           CLOUDY    77  70  79 CALM      29.93S
$$

PAZ038>040-043-044-047-048-054-055-060>062-067>071-281400-
EASTERN PENNSYLVANIA

CITY           SKY/WX    TMP DP  RH WIND       PRES   REMARKS
SCRANTON       MOSUNNY   76  63  64 CALM      29.96S
MOUNT POCONO   MOSUNNY   76  60  57 CALM      30.01S
ALLENTOWN      SUNNY     78  66  66 CALM      29.94S
QUAKERTOWN*    SUNNY     81  66  61 CALM      29.96R
READING        MOSUNNY   79  66  64 CALM      29.93R
LANCASTER      PTSUNNY   76  67  73 E5        29.93S
COATESVILLE    PTSUNNY   81  66  61 CALM      29.96S
POTTSTOWN      CLOUDY    77  69  76 CALM      29.95S
BLUE BELL      CLOUDY    79  70  73 CALM      29.93R
DOYLESTOWN     SUNNY     79  69  71 CALM      29.94R
WILLOW GROVE   NOT AVBL
NORTH PHILA    SUNNY     84  74  71 E3        29.94S
PHILADELPHIA   PTSUNNY   84  73  69 E3        29.93R
$$



USA.gov is the U.S. government's official web portal to all federal, state and local government web resources and services.